Flag for Netherlands Weather past 2 weeks in Zwolle, Netherlands

Now
63 °F

Thunderstorms. Broken clouds.


Feels Like: 63 °F
Forecast: 63 / 74 °F
Wind: 12 mph from North

Location: Amsterdam Schiphol Airport

Current Time: Jul 28, 2014 at 11:22:04 AM

Latest Report: Jul 28, 2014 at 10:55 AM


Visibility: 4 mi

Pressure: 29.92 "Hg

Humidity: 94%

Dew point: 61 °F

Location of ZwolleLocation

Historic Weather in Zwolle — Graph

°F

Zwolle temperature yesterday

Maximum temperature yesterday: 75 °F (at 2:25 PM)
Minimum temperature yesterday: 63 °F (at 2:55 AM)
Average temperature yesterday: 68 °F

Past Weeks' High & Low Weather Summary

 TemperatureHumidityPressure
High93 °F (Jul 19, 3:55 PM)100% (Jul 14, 7:55 AM)30.18 "Hg (Jul 14, 7:55 AM)
Low57 °F (Jul 15, 4:55 AM)30% (Jul 19, 3:55 PM)29.71 "Hg (Jul 13, 2:55 PM)
Average70 °F78%29.98 "Hg
* Reported Jul 13 9:25 AM — Jul 28 9:55 AM, Zwolle, Weather by CustomWeather, © 2014

Note: Actual official high and low records may vary slightly from our data, if they occured in-between our weather recording intervals... More about our weather records

Advertising

Zwolle weather history for previous 24 hours

 ConditionsComfort  
Time TempWeatherWind HumidityBarometerVisibility
9:55 AM
Jul 28
61 °FThunderstorms. Broken clouds.13 mph100%29.92 "Hg4 mi
9:25 AM63 °FThunderstorms. Broken clouds.10 mph94%29.92 "Hg3 mi
8:55 AM63 °FThundershowers. Broken clouds.15 mph94%29.92 "Hg3 mi
8:25 AM63 °FThunderstorms. Broken clouds.13 mph94%29.92 "Hg4 mi
7:55 AM64 °FThunderstorms. Scattered clouds.8 mph94%29.92 "Hg6 mi
7:25 AM64 °FThundershowers. Scattered clouds.7 mph94%29.92 "HgN/A
6:55 AM64 °FScattered clouds.5 mph100%29.92 "HgN/A
6:25 AM64 °FPassing clouds.7 mph100%29.92 "Hg6 mi
5:55 AM64 °FPassing clouds.5 mph100%29.92 "Hg6 mi
5:25 AM64 °FPassing clouds.6 mph100%29.92 "Hg5 mi
4:55 AM64 °FPassing clouds.7 mph100%29.92 "Hg4 mi
4:25 AM64 °FPassing clouds.6 mph100%29.92 "Hg4 mi
3:55 AM64 °FSprinkles. Passing clouds.3 mph100%29.95 "Hg4 mi
3:25 AM64 °FSprinkles. Passing clouds.3 mph100%29.95 "Hg4 mi
2:55 AM64 °FScattered showers. Passing clouds.3 mph100%29.95 "Hg6 mi
2:25 AM64 °FScattered showers. Passing clouds.5 mph94%29.95 "HgN/A
1:55 AM64 °FScattered showers. Passing clouds.3 mph94%29.98 "HgN/A
1:25 AM64 °FScattered showers. Passing clouds.8 mph94%29.98 "HgN/A
12:55 AM64 °FScattered showers. Passing clouds.5 mph94%29.98 "HgN/A
12:25 AM64 °FThunderstorms. Passing clouds.7 mph94%29.98 "Hg3 mi
11:55 PM
Jul 27
66 °FThunderstorms. Passing clouds.2 mph88%30.01 "Hg1 mi
11:25 PM66 °FThunderstorms. Passing clouds.7 mph88%29.98 "HgN/A
10:55 PM66 °FThundershowers. Passing clouds.6 mph88%29.98 "HgN/A
10:25 PM66 °FScattered clouds.6 mph88%30.01 "HgN/A
9:55 PM66 °FPassing clouds.7 mph88%30.01 "HgN/A
9:25 PM66 °FPassing clouds.8 mph88%30.01 "HgN/A
8:55 PM68 °FPassing clouds.9 mph83%29.98 "HgN/A
8:25 PM68 °FPassing clouds.10 mph78%29.98 "HgN/A
7:55 PM68 °FPassing clouds.12 mph83%29.98 "HgN/A
7:25 PM68 °FPassing clouds.9 mph83%29.98 "HgN/A
6:55 PM70 °FPassing clouds.12 mph78%29.98 "HgN/A
6:25 PM70 °FPassing clouds.10 mph78%29.98 "HgN/A
5:55 PM72 °FPassing clouds.14 mph78%29.98 "HgN/A
5:25 PM73 °FPassing clouds.10 mph74%29.98 "HgN/A
4:55 PM73 °FPassing clouds.13 mph74%29.98 "HgN/A
4:25 PM75 °FPassing clouds.10 mph65%29.98 "HgN/A
3:55 PM75 °FPassing clouds.7 mph69%29.98 "HgN/A
3:25 PM75 °FPassing clouds.7 mph69%29.98 "HgN/A
2:55 PM75 °FPassing clouds.7 mph69%29.98 "HgN/A
2:25 PM75 °FPassing clouds.7 mph69%30.01 "HgN/A
1:55 PM73 °FPassing clouds.6 mph69%30.01 "HgN/A
1:25 PM73 °FPassing clouds.7 mph74%30.01 "HgN/A
12:55 PM72 °FPassing clouds.7 mph73%30.01 "HgN/A
12:25 PM70 °FPassing clouds.7 mph78%30.01 "HgN/A
11:55 AM70 °FScattered clouds.9 mph83%30.01 "HgN/A
11:25 AM70 °FBroken clouds.8 mph83%30.01 "HgN/A
Weather by CustomWeather, © 2014

See weather overviewHow to use our weather pages